Weather in Studenyye Vyselki

Russia / Lipetsk Oblast     52°42′53″N   39°30′57″E
В апреле 2022 года жителям России запретили посещать сайт meteo.paraplan.net по решению Генеральной прокуратуры. Аудитория сайта уменьшилась в 10 раз. Владельцы сайта не видят смысла в поддержке погодного сервера в таких условиях. Сайт будет закрыт в октябре.
temp.,
°C
wind,
m/s
gust,
m/s
humid.,
%
clouds,
%
prec.,
mm/h
press.,
hPa
HPBL,
m
29 september, thu
thu2900:00+11n359065 0.0 1005177
03:00+8nnw239212 0.0 100655
06:00+8ne008925 0.0 100710
09:00+11sw2385100 0.0 1009162
12:00+16sw347036 0.0 1010840
15:00+17sw3465100 0.1 1011155
18:00+15wnw2277100 0.0 101331
21:00+13w118094 0.0 101410
30 september, fri
fri3000:00+12se1183100 0.0 101510
03:00+12s2287100 0.0 101624
06:00+11s3486100 0.0 101763
09:00+14sse478184 0.0 1017265
12:00+19s576365 0.0 1017767
15:00+18s3470100 0.0 101778
18:00+16se3380100 0.4 101755
21:00+15se3788100 0.7 1017156
1 october, sat
sat100:00+15s378854 0.6 1017189
03:00+13ssw349290 0.9 101765
06:00+14sse3797100 0.2 1018215
09:00+15s349382 0.3 1017342
12:00+19sw357567 0.0 1017856
15:00+20wsw466744 0.1 1016919
18:00+17ssw2378100 0.1 101526
21:00+15ssw499297 1.6 1014226
2 october, sun
sun200:00+15ssw41091100 2.1 1013280
03:00+15ssw489286 2.3 1012232
06:00+14sw389373 0.1 1012222
09:00+16wsw488416 0.1 1012434
12:00+19wsw467095 0.0 1012957
15:00+19w3468100 0.0 1011970
18:00+16nne228193 0.0 101127
21:00+14ne368899 0.0 1010145
3 october, mon
mon300:00+13ene499599 1.6 1009275
03:00+14e51097100 3.8 1007278
06:00+14se51095100 0.4 1004289
09:00+16ese61379100 0.6 1002419
12:00+15sse71580100 0.4 10021029
15:00+16se10188084 2.4 10001009
18:00+16se91986100 1.3 9981345
21:00+12s10177794 1.7 10021230